Location: Pulvis Stellarum Observatory
(41.6962°N, 71.4263°W)
Time: 16:57:23
(UTC-04:00)

Cosmos 1758 - Visible Passes

Search period start: 19 April 2014 00:00
Search period end: 29 April 2014 00:00
Orbit: 551 x 578 km, 82.5° (Epoch: 19 April)

Date Brightness Start Highest point End Pass type
(mag) Time Alt. Az. Time Alt. Az. Time Alt. Az.
19 Apr 6.1 02:15:06 10° NE 02:17:14 14° ENE 02:17:14 14° ENE visible
19 Apr 4.2 03:50:22 10° NNW 03:53:14 36° NW 03:53:14 36° NW visible
20 Apr 6.0 02:14:55 10° NNE 02:17:11 17° ENE 02:17:11 17° ENE visible
20 Apr 4.6 03:50:44 10° NNW 03:53:10 28° NW 03:53:10 28° NW visible
21 Apr 5.8 02:14:50 10° NNE 02:17:08 20° ENE 02:17:08 20° ENE visible
21 Apr 5.0 03:51:08 10° NNW 03:53:08 22° NW 03:53:08 22° NW visible
22 Apr 5.7 02:14:49 10° NNE 02:17:08 22° NE 02:17:08 22° NE visible
22 Apr 5.3 03:51:34 10° NW 03:53:08 18° NW 03:53:08 18° NW visible
23 Apr 5.5 02:14:51 10° NNE 02:17:08 24° NE 02:17:08 24° NE visible
23 Apr 5.5 03:52:03 10° NW 03:53:08 15° NW 03:53:08 15° NW visible
24 Apr 5.4 02:14:55 10° N 02:17:08 26° NNE 02:17:08 26° NNE visible
24 Apr 5.7 03:52:37 10° NW 03:53:08 12° NW 03:53:08 12° NW visible
25 Apr 5.4 02:15:00 10° N 02:17:10 28° NNE 02:17:10 28° NNE visible
26 Apr 5.3 02:15:07 10° N 02:17:11 28° N 02:17:11 28° N visible
27 Apr 5.3 02:15:14 10° N 02:17:14 27° N 02:17:14 27° N visible
28 Apr 5.3 02:15:23 10° N 02:17:16 26° N 02:17:16 26° N visible
